sat.trackr.live / text

‹ back to catalog

AAC-HSI-SAT3

NORAD 58848 · 2023-174DH

PAYLOAD ACTIVE UNKNOWN

§ Identity

Operator
Country
UK
Launch date
2023-11-11
Launch site
AFWTR
Launch vehicle
Mass (kg)
RCS (m²)

External: N2YO · Heavens-Above · Gunter

§ Orbital elements

Epoch: 2026-05-25T03:59:59.900064Z

Period
95.01 min
Inclination
97.3420°
Eccentricity
0.0012331
Mean motion
15.15639603 rev/d
Perigee alt
510.5 km
Apogee alt
527.5 km
Semi-major
6,897.2 km
B*
1.3285e-4
RAAN
205.3205°
Arg perigee
89.6243°
Mean anomaly
270.6403°
Rev number
14,041

§ Raw data

AAC-HSI-SAT31 58848U 23174DH  26145.16666551  .00002465  00000+0  13285-3 0  99922 58848  97.3420 205.3205 0012331  89.6243 270.6403 15.15639603140410

JSON: /api/v1/satellites/58848 · /tle

For live sub-satellite position, see the globe view (requires WebGL).

§ Visibility from observer

Set your observer location to see the next 7 days of passes ≥ 10°. The values pass through the URL so the page stays shareable.

No JS? Fill the form by hand. The geolocation button needs JavaScript.